Location: Hobi?a Gr?di?te
(45.4833°N, 22.7833°E)
Time: 10:06:47
(UTC+00:00)

Cosmos 2369 - Pass Details

Date: 28 January 2023
Orbit: 838 x 856 km, 71.0° (Epoch: 20 March)

Event Time Altitude Azimuth Distance (km) Brightness Sun altitude
Rises 16:37:18 0° 204° (SSW) 3,377 7.4 -12.1°
Reaches altitude 10° 16:39:43 10° 205° (SSW) 2,447 6.7 -12.5°
Maximum altitude 16:45:21 88° 296° (WNW) 848 3.7 -13.4°
Drops below altitude 10° 16:51:03 10° 26° (NNE) 2,474 5.8 -14.4°
Enters shadow 16:52:15 - 26° (NNE) 2,929 6.2 -14.6°
